Weather Service Report


780 
ASUS45 KABQ 080410
RWRNM 
NEW MEXICO REGIONAL WEATHER ROUNDUP
NATIONAL WEATHER SERVICE ALBUQUERQUE NM
900 PM MST WED DEC 07 2016

NOTE: "FAIR" MEANS FEW OR NO CLOUDS BELOW 12,000 FEET AGL WITH NO
       SIGNIFICANT WEATHER OR OBSTRUCTIONS TO VISION.

      THIS PRODUCT IS RELEASED AS TWO VERSIONS.  ONE VERSION NEAR
      THE TOP OF THE HOUR CONTAINING PRELIMINARY DATA FROM ALBUQUERQUE
      AND OTHER STATIONS.  A FINAL VERSION WITH ADDITIONAL DATA IS 
      ISSUED ABOUT 10 MINUTES AFTER THE HOUR.
 
NMZ501-503-504-510>518-080500-
NORTHWEST PLATEAU/NORTHCENTRAL MOUNTAINS
  
CITY           SKY/WX    TMP DP  RH WIND       PRES   REMARKS
FARMINGTON     FAIR      24   5  44 NE5       30.20R WCI  18          
LOS ALAMOS     FAIR      29  11  47 CALM      30.19R                  
SANTA FE       MOCLDY    28  11  48 CALM      30.19R                  
TAOS           FAIR      23   5  46 S6        30.18R WCI  16          
ANGEL FIRE     FAIR      13   8  79 S7        30.16R WCI   3          

$$
NMZ402-403-502-505>509-080500-
WESTCENTRAL MOUNTAINS/SOUTHWEST MOUNTAINS
  
CITY           SKY/WX    TMP DP  RH WIND       PRES   REMARKS
GALLUP         FAIR      24  11  57 N6        30.18R WCI  17          
GRANTS         FAIR      26  14  59 NW13      30.21R WCI  15          

$$
NMZ407-409-411-412-080500-
SOUTHERN DESERTS
  
CITY           SKY/WX    TMP DP  RH WIND       PRES   REMARKS
DEMING         FAIR      48  35  60 SW6       30.11R                  
LAS CRUCES     FAIR      50  32  49 W7        30.12R                  
HOLLOMAN AFB   FAIR      49  31  48 SE9       30.14R                  
T OR C         FAIR      46  22  38 N10       30.11R                  

$$
NMZ519>523-080500-
CENTRAL VALLEYS/CENTRAL HIGHLANDS
  
CITY           SKY/WX    TMP DP  RH WIND       PRES   REMARKS
ALBUQUERQUE    MOCLDY    36  17  46 N6        30.20R WCI  31          
DOUBLE EAGLE   PTCLDY    28  14  54 N5        30.20R WCI  23          
MORIARTY ARPT  CLOUDY    27  14  56 SE8       30.24R WCI  19          
CLINES CORNERS FAIR      17   9  70 E17       30.23R WCI   1          
BELEN          CLOUDY    35  17  47 NW6       30.19R WCI  30          
SOCORRO        FAIR      39  20  45 N8        30.16S WCI  34          

$$
NMZ524>526-539-540-080500-
SOUTHCENTRAL MOUNTAINS
  
CITY           SKY/WX    TMP DP  RH WIND       PRES   REMARKS
RUIDOSO        CLOUDY    27  16  63 SE10      30.25R WCI  17          

$$
NMZ527>531-080500-
NORTHEAST HIGHLANDS/NORTHEAST PLAINS
  
CITY           SKY/WX    TMP DP  RH WIND       PRES   REMARKS
LAS VEGAS      FAIR      10   5  80 NE10      30.24R WCI  -4          
RATON          MOCLDY    11   4  73 NE9       30.27R WCI  -2          
CLAYTON        CLOUDY    17  13  84 NE15      30.36R WCI   2          

$$
NMZ532>537-080500-
EASTCENTRAL PLAINS
  
CITY           SKY/WX    TMP DP  RH WIND       PRES   REMARKS
TUCUMCARI      CLOUDY    24  14  65 NE14      30.39R WCI  12          
CANNON AFB     CLOUDY    24  20  82 NE22      30.34R WCI   9          
CLOVIS AIRPORT CLOUDY    25  14  63 NE17G25   30.35R WCI  11          

$$
NMZ028-029-538-080500-
SOUTHEAST PLAINS
  
CITY           SKY/WX    TMP DP  RH WIND       PRES   REMARKS
ROSWELL        CLOUDY    36  13  38 NE17      30.31R WCI  26          
ARTESIA        CLOUDY    39  34  81 NE15G21   30.28R WCI  31          
CARLSBAD       NOT AVBL                                               


$$
  

Return to Home page


Western Regional Climate Center, wrcc@dri.edu